TimePST,TemperatureF,Dew PointF,Humidity,Sea Level PressureIn,VisibilityMPH,Wind Direction,Wind SpeedMPH,Gust SpeedMPH,PrecipitationIn,Events,Conditions,WindDirDegrees,DateUTC
12:15 AM,50.0,50.0,100,29.62,6.0,Variable,6.9,-,0.00,Rain,Light Rain,0,2014-02-27 08:15:00
12:26 AM,50.0,50.0,100,29.62,8.0,Variable,3.5,-,0.00,Rain,Light Rain,0,2014-02-27 08:26:00
12:56 AM,50.0,48.9,96,29.62,9.0,Variable,4.6,-,0.00,Rain,Light Rain,0,2014-02-27 08:56:00
1:56 AM,50.0,47.8,92,29.62,10.0,Variable,3.5,-,0.00,,Overcast,0,2014-02-27 09:56:00
2:56 AM,50.9,47.8,89,29.62,10.0,Variable,3.5,-,N/A,,Overcast,0,2014-02-27 10:56:00
3:56 AM,50.0,46.9,89,29.62,10.0,Calm,Calm,-,N/A,,Overcast,0,2014-02-27 11:56:00
4:56 AM,50.9,46.9,86,29.63,10.0,Variable,4.6,-,N/A,,Overcast,0,2014-02-27 12:56:00
5:56 AM,48.9,47.8,96,29.64,10.0,Calm,Calm,-,0.02,,Overcast,0,2014-02-27 13:56:00
6:56 AM,50.0,47.8,92,29.66,7.0,Variable,6.9,-,0.00,,Overcast,0,2014-02-27 14:56:00
7:19 AM,48.2,48.2,100,29.66,3.0,Variable,4.6,-,0.00,Rain,Light Rain,0,2014-02-27 15:19:00
7:27 AM,48.2,46.4,93,29.65,4.0,Variable,3.5,-,0.00,,Overcast,0,2014-02-27 15:27:00
7:56 AM,50.0,46.9,89,29.67,10.0,Variable,3.5,-,0.00,,Overcast,0,2014-02-27 15:56:00
8:56 AM,50.9,47.8,89,29.69,9.0,Variable,3.5,-,N/A,,Overcast,0,2014-02-27 16:56:00
9:47 AM,51.8,48.2,88,29.70,9.0,Variable,5.8,-,0.00,,Overcast,0,2014-02-27 17:47:00
9:56 AM,52.9,47.8,83,29.71,9.0,South,6.9,-,0.00,,Overcast,170,2014-02-27 17:56:00
10:12 AM,53.6,48.2,82,29.71,7.0,South,8.1,-,N/A,,Overcast,170,2014-02-27 18:12:00
10:20 AM,53.6,48.2,82,29.71,6.0,SSE,5.8,-,0.00,Rain,Light Rain,150,2014-02-27 18:20:00
10:56 AM,52.9,47.8,83,29.71,9.0,SE,6.9,-,0.00,,Overcast,140,2014-02-27 18:56:00
11:22 AM,51.8,50.0,94,29.72,2.0,SSE,11.5,-,0.00,Rain,Light Rain,160,2014-02-27 19:22:00
11:24 AM,51.8,50.0,94,29.72,1.8,SE,8.1,-,0.00,Rain,Light Rain,140,2014-02-27 19:24:00
11:27 AM,51.8,50.0,94,29.71,1.2,Variable,4.6,-,0.00,Rain,Light Rain,0,2014-02-27 19:27:00
11:30 AM,51.8,50.0,94,29.71,1.5,Variable,5.8,-,0.00,Rain,Light Rain,0,2014-02-27 19:30:00
11:35 AM,51.8,50.0,94,29.71,3.0,SE,5.8,-,0.00,Rain,Light Rain,130,2014-02-27 19:35:00
11:44 AM,51.8,50.0,94,29.71,8.0,Calm,Calm,-,0.00,,Overcast,0,2014-02-27 19:44:00
11:56 AM,54.0,50.9,89,29.71,10.0,ESE,9.2,-,0.00,,Mostly Cloudy,120,2014-02-27 19:56:00
12:56 PM,54.9,48.9,80,29.71,8.0,SSE,9.2,-,N/A,,Mostly Cloudy,160,2014-02-27 20:56:00
1:26 PM,53.6,50.0,88,29.73,2.5,South,12.7,19.6,0.00,Rain,Light Rain,170,2014-02-27 21:26:00
1:31 PM,51.8,50.0,94,29.73,3.0,South,12.7,20.7,0.00,Rain,Light Rain,180,2014-02-27 21:31:00
1:38 PM,51.8,50.0,94,29.73,1.5,SSE,13.8,20.7,0.00,Rain,Light Rain,160,2014-02-27 21:38:00
1:41 PM,51.8,50.0,94,29.74,1.0,South,15.0,20.7,0.00,Rain,Light Rain,170,2014-02-27 21:41:00
1:45 PM,51.8,51.8,100,29.74,0.5,South,13.8,20.7,0.00,Fog-Rain,Light Rain,170,2014-02-27 21:45:00
1:56 PM,52.0,50.9,96,29.75,0.2,South,13.8,19.6,0.00,Fog,Fog,170,2014-02-27 21:56:00
2:01 PM,51.8,51.8,100,29.74,0.8,South,12.7,19.6,N/A,,Overcast,170,2014-02-27 22:01:00
2:04 PM,51.8,51.8,100,29.74,1.2,South,15.0,19.6,N/A,,Overcast,170,2014-02-27 22:04:00
2:06 PM,51.8,51.8,100,29.74,2.0,South,13.8,19.6,N/A,,Overcast,170,2014-02-27 22:06:00
2:27 PM,51.8,51.8,100,29.74,4.0,South,16.1,19.6,N/A,,Overcast,170,2014-02-27 22:27:00
2:49 PM,51.8,51.8,100,29.75,6.0,South,15.0,21.9,N/A,,Overcast,170,2014-02-27 22:49:00
2:56 PM,52.0,50.9,96,29.75,3.0,SSE,13.8,21.9,N/A,,Overcast,160,2014-02-27 22:56:00
3:03 PM,51.8,51.8,100,29.75,2.0,South,16.1,21.9,N/A,,Overcast,170,2014-02-27 23:03:00
3:27 PM,51.8,50.0,94,29.74,4.0,SSE,16.1,20.7,0.00,,Overcast,160,2014-02-27 23:27:00
3:56 PM,52.0,50.0,93,29.75,4.0,South,12.7,20.7,0.00,,Overcast,170,2014-02-27 23:56:00
3:59 PM,51.8,50.0,94,29.74,1.5,South,12.7,-,0.00,Rain,Light Rain,180,2014-02-27 23:59:00
4:01 PM,51.8,50.0,94,29.74,1.0,South,15.0,20.7,0.00,Rain,Light Rain,180,2014-02-28 00:01:00
4:04 PM,51.8,50.0,94,29.74,0.5,South,15.0,20.7,0.00,Fog-Rain,Light Rain,180,2014-02-28 00:04:00
4:10 PM,51.8,50.0,94,29.75,0.2,South,12.7,20.7,0.01,Fog-Rain,Light Rain,170,2014-02-28 00:10:00
4:19 PM,51.8,50.0,94,29.75,0.8,SSE,12.7,19.6,0.01,Rain,Light Rain,160,2014-02-28 00:19:00
4:26 PM,51.8,50.0,94,29.74,1.2,South,12.7,19.6,0.01,Rain,Light Rain,170,2014-02-28 00:26:00
4:30 PM,51.8,50.0,94,29.74,2.0,SSE,13.8,19.6,0.01,Rain,Light Rain,160,2014-02-28 00:30:00
4:39 PM,51.8,51.8,100,29.75,5.0,South,11.5,19.6,0.01,Rain,Light Rain,170,2014-02-28 00:39:00
4:49 PM,51.8,51.8,100,29.74,6.0,SSE,13.8,19.6,0.01,,Overcast,160,2014-02-28 00:49:00
4:56 PM,50.9,50.0,97,29.75,6.0,South,13.8,19.6,0.01,,Overcast,170,2014-02-28 00:56:00
5:13 PM,51.8,50.0,94,29.75,2.5,South,16.1,19.6,N/A,,Overcast,170,2014-02-28 01:13:00
5:20 PM,51.8,50.0,94,29.75,4.0,South,11.5,19.6,N/A,,Overcast,170,2014-02-28 01:20:00
5:23 PM,51.8,50.0,94,29.74,1.5,South,13.8,-,0.00,Rain,Light Rain,170,2014-02-28 01:23:00
5:25 PM,51.8,50.0,94,29.74,1.0,South,13.8,19.6,0.00,Rain,Light Rain,180,2014-02-28 01:25:00
5:27 PM,51.8,50.0,94,29.74,0.5,South,12.7,19.6,0.01,Fog-Rain,Light Rain,180,2014-02-28 01:27:00
5:35 PM,51.8,50.0,94,29.74,0.2,South,11.5,-,0.01,Fog-Rain,Light Rain,170,2014-02-28 01:35:00
5:46 PM,51.8,50.0,94,29.74,0.2,South,10.4,-,0.01,Fog-Rain,Light Rain,170,2014-02-28 01:46:00
5:56 PM,50.9,50.0,97,29.75,0.2,SSE,12.7,-,0.02,Fog-Rain,Light Rain,160,2014-02-28 01:56:00
6:10 PM,50.0,50.0,100,29.74,0.2,SSE,10.4,19.6,0.00,Fog-Rain,Light Rain,160,2014-02-28 02:10:00
6:28 PM,50.0,50.0,100,29.74,0.8,Variable,5.8,-,0.00,Rain,Light Rain,0,2014-02-28 02:28:00
6:31 PM,50.0,50.0,100,29.74,1.2,SE,6.9,-,0.00,Rain,Light Rain,140,2014-02-28 02:31:00
6:33 PM,50.0,50.0,100,29.74,2.5,SE,5.8,-,0.00,Rain,Light Rain,130,2014-02-28 02:33:00
6:40 PM,50.0,50.0,100,29.74,5.0,ESE,5.8,-,0.00,,Overcast,120,2014-02-28 02:40:00
6:56 PM,50.0,50.0,100,29.74,7.0,Variable,4.6,-,0.00,,Overcast,0,2014-02-28 02:56:00
7:32 PM,50.0,50.0,100,29.72,8.0,Variable,3.5,-,N/A,,Overcast,0,2014-02-28 03:32:00
7:49 PM,50.0,48.2,94,29.71,9.0,Variable,4.6,-,N/A,,Scattered Clouds,0,2014-02-28 03:49:00
7:56 PM,50.0,48.9,96,29.71,9.0,ENE,4.6,-,N/A,,Partly Cloudy,70,2014-02-28 03:56:00
8:56 PM,48.9,47.8,96,29.68,10.0,Calm,Calm,-,N/A,,Clear,0,2014-02-28 04:56:00
9:56 PM,50.0,46.9,89,29.65,10.0,Variable,4.6,-,N/A,,Clear,0,2014-02-28 05:56:00
10:56 PM,50.9,45.9,83,29.60,10.0,ENE,8.1,-,N/A,,Clear,60,2014-02-28 06:56:00
11:56 PM,50.9,45.0,80,29.56,10.0,NE,9.2,-,N/A,,Clear,50,2014-02-28 07:56:00